"startDT [UTC]","vpos","CH4 [ppm]","stdev(CH4) [ppm]","CO2 [ppm]","stdev(CO2) [ppm]","H2O_reported [%]","stdev(H2O_reported)","CavityPressure [torr]","CavityTemp [C]","OutletValve","CH4_dry [ppm]","CO2_dry [ppm]","DasTemp [C]","EtalonTemp [C]","WarmBoxTemp [C]","MPVPosition","T_ECpre [C]","T_EC1 [C]","T_EC2 [C]","p_inlet [hPa]","p_in [hPa]","p_out [hPa]","T_inlet [C]","RH_inlet [%]","dwpt_inlet [C]","T_vent [C]","RH_vent [%]","dwpt_vent [C]","flow_vent [l min-1]","flow_inlet [l min-1]","dwpt_sample [C]","T_room [C]"
2015-07-21 00:00:00,0.0,1.93064,0.00044,384.391,0.113,1.2510,0.0018,139.998,45.000,34299.85259,1.95541,390.425,32.966,45.068,45.000,0.00,0.10,-272.73,-272.80,-6,987,-5,23.4,34.4,6.8,23.2,35.4,7.0,5.73,1.79,2.2,27.3
2015-07-21 00:01:00,0.0,1.92998,0.00067,384.349,0.161,1.2554,0.0019,139.998,45.000,34301.39624,1.95486,390.381,32.969,45.068,45.000,0.00,0.10,-272.74,-272.80,-7,987,-5,23.4,34.5,6.9,23.2,35.5,7.0,5.73,2.04,2.2,27.3
2015-07-21 00:02:00,0.0,1.92923,0.00040,384.533,0.117,1.2562,0.0018,140.003,45.000,34303.61761,1.95410,390.584,32.963,45.068,45.000,0.00,0.10,-272.73,-272.80,-6,987,-5,23.4,34.5,6.8,23.1,35.5,7.1,5.73,1.79,2.2,27.3
2015-07-21 00:03:00,0.0,1.92889,0.00051,384.584,0.099,1.2504,0.0027,140.001,45.000,34305.92640,1.95360,390.608,32.974,45.068,45.000,0.00,0.10,-272.73,-272.80,-7,987,-5,23.4,34.4,6.8,23.1,35.4,7.0,5.73,1.99,2.2,27.3
2015-07-21 00:04:00,0.0,1.92915,0.00031,384.504,0.099,1.2535,0.0016,139.997,45.000,34305.02481,1.95393,390.548,32.968,45.068,45.000,0.00,0.10,-272.74,-272.80,-6,987,-5,23.4,34.5,6.8,23.1,35.4,7.0,5.73,1.87,2.2,27.3
2015-07-21 00:05:00,0.0,1.92928,0.00044,384.388,0.106,1.2539,0.0027,140.000,45.000,34308.45148,1.95409,390.427,32.956,45.068,45.000,0.00,0.10,-272.74,-272.80,-7,987,-5,23.4,34.5,6.8,23.1,35.5,7.0,5.73,1.89,2.2,27.3
2015-07-21 00:06:00,0.0,1.92929,0.00031,384.416,0.104,1.2543,0.0024,139.997,45.000,34310.35395,1.95406,390.463,32.953,45.068,45.000,0.00,0.10,-272.74,-272.80,-7,987,-5,23.4,34.5,6.8,23.1,35.5,7.0,5.73,1.98,2.2,27.3
2015-07-21 00:07:00,0.0,1.92929,0.00032,384.304,0.136,1.2554,0.0035,139.997,45.000,34309.42368,1.95415,390.340,32.985,45.068,45.000,0.00,0.10,-272.74,-272.81,-7,988,-5,23.4,34.6,6.9,23.1,35.5,7.0,5.73,1.79,2.2,27.2
2015-07-21 00:08:00,0.0,1.92949,0.00034,384.526,0.059,1.2542,0.0029,139.998,45.000,34310.42588,1.95427,390.570,32.997,45.068,45.000,0.00,0.10,-272.74,-272.80,-7,987,-5,23.4,34.5,6.8,23.1,35.5,7.0,5.73,2.04,2.2,27.3
2015-07-21 00:09:00,0.0,1.92954,0.00049,384.483,0.132,1.2499,0.0020,140.000,45.000,34311.88702,1.95423,390.510,32.981,45.068,45.000,0.00,0.10,-272.73,-272.80,-7,988,-5,23.4,34.4,6.8,23.1,35.4,7.0,5.73,1.78,2.2,27.3
2015-07-21 00:10:00,0.0,1.92951,0.00051,384.491,0.097,1.2550,0.0024,140.000,45.000,34311.56546,1.95435,390.527,32.966,45.068,45.000,0.00,0.10,-272.74,-272.80,-7,987,-5,23.3,34.6,6.8,23.1,35.5,7.0,5.73,1.99,2.2,27.3
2015-07-21 00:11:00,0.0,1.92942,0.00043,384.584,0.052,1.2527,0.0023,139.999,45.000,34311.90891,1.95422,390.625,32.969,45.068,45.000,0.00,0.10,-272.75,-272.80,-7,988,-5,23.3,34.4,6.8,23.1,35.4,7.0,5.73,1.87,2.2,27.3
2015-07-21 00:12:00,0.0,1.92934,0.00032,384.444,0.087,1.2529,0.0029,140.000,45.000,34313.18872,1.95411,390.480,32.985,45.068,45.000,0.00,0.10,-272.74,-272.80,-7,987,-5,23.3,34.5,6.8,23.1,35.4,7.0,5.73,1.88,2.2,27.3
2015-07-21 00:13:00,0.0,1.92889,0.00037,384.417,0.151,1.2583,0.0022,139.998,45.000,34314.26133,1.95380,390.477,32.983,45.068,45.000,0.00,0.10,-272.74,-272.80,-7,988,-5,23.3,34.7,6.9,23.1,35.7,7.1,5.73,1.99,2.2,27.3
2015-07-21 00:14:00,0.0,1.92886,0.00048,384.339,0.121,1.2562,0.0017,139.998,45.000,34314.97204,1.95371,390.394,32.977,45.068,45.000,0.00,0.10,-272.74,-272.81,-7,987,-5,23.3,34.6,6.8,23.1,35.6,7.1,5.73,1.78,2.2,27.3
2015-07-21 00:15:00,0.0,1.92823,0.00051,384.464,0.135,1.2579,0.0022,139.999,45.000,34313.88992,1.95311,390.523,32.993,45.068,45.000,0.00,0.10,-272.73,-272.80,-7,988,-5,23.3,34.7,6.9,23.1,35.7,7.1,5.73,2.04,2.2,27.3
2015-07-21 00:16:00,0.0,1.92834,0.00042,384.374,0.120,1.2602,0.0017,140.000,45.000,34313.81005,1.95323,390.438,32.996,45.068,45.000,0.00,0.10,-272.73,-272.80,-7,987,-5,23.3,34.7,6.9,23.1,35.7,7.1,5.73,1.80,2.2,27.4
2015-07-21 00:17:00,0.0,1.92773,0.00042,384.579,0.066,1.2570,0.0023,139.998,45.000,34313.79985,1.95264,390.634,33.000,45.068,45.000,0.00,0.10,-272.74,-272.80,-6,988,-5,23.3,34.6,6.8,23.1,35.6,7.1,5.73,1.96,2.2,27.3
2015-07-21 00:18:00,0.0,1.92755,0.00037,384.459,0.101,1.2530,0.0017,140.001,45.000,34315.34606,1.95230,390.500,33.000,45.068,45.000,0.00,0.10,-272.74,-272.80,-7,987,-5,23.3,34.5,6.8,23.1,35.5,7.0,5.73,1.90,2.2,27.3
2015-07-21 00:19:00,0.0,1.92717,0.00037,384.392,0.132,1.2560,0.0025,139.999,45.000,34317.00171,1.95197,390.445,32.998,45.068,45.000,0.00,0.10,-272.73,-272.80,-6,988,-5,23.3,34.6,6.8,23.1,35.6,7.1,5.73,1.84,2.2,27.3
2015-07-21 00:20:00,0.0,1.92712,0.00042,384.026,0.144,1.2599,0.0034,140.000,45.000,34316.70750,1.95203,390.090,33.000,45.068,45.000,0.00,0.10,-272.74,-272.80,-7,988,-5,23.3,34.8,6.9,23.1,35.7,7.1,5.73,2.01,2.2,27.3
2015-07-21 00:21:00,0.0,1.92618,0.00032,384.537,0.086,1.2629,0.0045,139.999,45.000,34317.74084,1.95116,390.617,33.000,45.068,45.000,0.00,0.10,-272.74,-272.81,-6,988,-5,23.3,34.7,6.8,23.1,35.8,7.2,5.73,1.77,2.2,27.3
2015-07-21 00:22:00,0.0,1.92556,0.00049,384.540,0.135,1.2511,0.0012,140.000,45.000,34319.07843,1.95029,390.564,33.002,45.068,45.000,0.00,0.10,-272.74,-272.80,-8,988,-5,23.3,34.5,6.7,23.1,35.5,7.0,5.73,2.02,2.2,27.3
2015-07-21 00:23:00,0.0,1.92517,0.00047,384.518,0.096,1.2518,0.0027,139.999,45.000,34317.82964,1.94988,390.549,33.001,45.068,45.000,0.00,0.10,-272.73,-272.80,-6,988,-5,23.3,34.5,6.8,23.1,35.5,7.0,5.73,1.83,2.2,27.3
2015-07-21 00:24:00,0.0,1.92473,0.00058,384.404,0.106,1.2531,0.0023,139.999,45.000,34318.41058,1.94948,390.440,33.001,45.068,45.000,0.00,0.10,-272.74,-272.80,-7,988,-5,23.3,34.6,6.8,23.1,35.5,7.0,5.73,1.92,2.2,27.3
2015-07-21 00:25:00,0.0,1.92437,0.00051,384.575,0.052,1.2530,0.0027,139.997,45.000,34319.76983,1.94907,390.610,33.017,45.068,45.000,0.00,0.10,-272.74,-272.79,-6,988,-5,23.3,34.5,6.8,23.1,35.6,7.0,5.73,1.95,2.2,27.3
2015-07-21 00:26:00,0.0,1.92434,0.00033,384.589,0.067,1.2477,0.0025,140.001,45.000,34320.79505,1.94897,390.600,33.018,45.068,45.000,0.00,0.10,-272.73,-272.79,-7,988,-5,23.3,34.3,6.7,23.1,35.4,7.0,5.73,1.81,2.2,27.3
2015-07-21 00:27:00,0.0,1.92427,0.00043,384.586,0.082,1.2465,0.0032,140.001,45.000,34319.41851,1.94885,390.592,33.025,45.068,45.000,0.00,0.10,-272.74,-272.80,-6,988,-5,23.3,34.4,6.7,23.1,35.3,6.9,5.73,2.03,2.2,27.3
2015-07-21 00:28:00,0.0,1.92405,0.00031,384.516,0.081,1.2512,0.0024,140.005,45.000,34320.54353,1.94872,390.546,33.005,45.068,45.000,0.00,0.10,-272.74,-272.80,-7,988,-5,23.3,34.5,6.8,23.1,35.5,7.0,5.73,1.78,2.2,27.3
2015-07-21 00:29:00,0.0,1.92420,0.00030,384.253,0.122,1.2516,0.0027,140.000,45.000,34321.45896,1.94887,390.285,33.004,45.068,45.000,0.00,0.10,-272.73,-272.80,-6,988,-5,23.3,34.5,6.8,23.1,35.5,7.0,5.73,2.00,2.3,27.3
2015-07-21 00:30:00,0.0,1.92420,0.00039,384.268,0.119,1.2562,0.0027,140.001,45.000,34320.02763,1.94900,390.315,33.024,45.068,45.000,0.00,0.10,-272.73,-272.80,-7,988,-5,23.3,34.7,6.9,23.1,35.7,7.1,5.73,1.86,2.2,27.3
2015-07-21 00:31:00,0.0,1.92414,0.00040,384.336,0.224,1.2565,0.0036,140.000,45.000,34320.35793,1.94889,390.384,33.045,45.068,45.000,0.00,0.10,-272.74,-272.80,-6,988,-5,23.3,34.6,6.8,23.1,35.7,7.1,5.73,1.88,2.2,27.3
2015-07-21 00:32:00,0.0,1.92485,0.00049,384.451,0.209,1.2491,0.0024,139.997,45.000,34319.46094,1.94948,390.460,33.050,45.068,45.000,0.00,0.10,-272.74,-272.80,-7,989,-5,23.3,34.4,6.7,23.1,35.5,7.0,5.73,1.98,2.3,27.3
2015-07-21 00:33:00,0.0,1.92550,0.00045,384.487,0.159,1.2436,0.0026,140.000,45.000,34321.10264,1.95001,390.487,33.063,45.068,45.000,0.00,0.10,-272.73,-272.80,-6,988,-5,23.3,34.2,6.7,23.1,35.3,6.9,5.73,1.79,2.2,27.3
2015-07-21 00:34:00,0.0,1.92590,0.00041,384.263,0.162,1.2471,0.0024,140.003,45.000,34322.61058,1.95050,390.256,33.064,45.068,45.000,0.00,0.10,-272.74,-272.81,-7,988,-5,23.3,34.5,6.8,23.1,35.4,7.0,5.73,2.04,2.3,27.3
2015-07-21 00:35:00,0.0,1.92490,0.00052,384.538,0.114,1.2469,0.0031,139.999,45.000,34318.78441,1.94955,390.545,33.064,45.068,45.000,0.00,0.10,-272.74,-272.80,-7,988,-5,23.3,34.3,6.7,23.1,35.4,7.0,5.73,1.80,2.3,27.3
2015-07-21 00:36:00,0.0,1.92362,0.00050,384.752,0.124,1.2378,0.0029,139.998,45.000,34319.51078,1.94809,390.716,33.063,45.068,45.000,0.00,0.10,-272.73,-272.80,-7,989,-5,23.3,34.1,6.6,23.1,35.1,6.8,5.73,1.96,2.3,27.3
2015-07-21 00:37:00,0.0,1.92277,0.00076,384.518,0.107,1.2392,0.0036,139.998,45.000,34320.18921,1.94724,390.484,33.063,45.068,45.000,0.00,0.10,-272.74,-272.80,-7,988,-5,23.3,34.3,6.7,23.1,35.2,6.9,5.73,1.92,2.2,27.3
2015-07-21 00:38:00,0.0,1.92134,0.00049,384.494,0.163,1.2457,0.0018,139.997,45.000,34320.20220,1.94588,390.499,33.039,45.068,45.000,0.00,0.10,-272.74,-272.80,-7,989,-5,23.3,34.3,6.7,23.1,35.4,6.9,5.73,1.84,2.3,27.3
2015-07-21 00:39:00,0.0,1.92142,0.00046,384.508,0.092,1.2446,0.0018,139.999,45.000,34321.12910,1.94592,390.500,33.022,45.068,45.000,0.00,0.10,-272.74,-272.79,-7,988,-5,23.3,34.3,6.6,23.1,35.3,6.9,5.73,2.02,2.3,27.3
2015-07-21 00:40:00,0.0,1.92165,0.00046,384.628,0.172,1.2431,0.0022,140.001,45.000,34320.90513,1.94612,390.613,33.028,45.068,45.000,0.00,0.10,-272.74,-272.79,-6,989,-5,23.3,34.3,6.7,23.1,35.3,6.9,5.73,1.78,2.3,27.2
2015-07-21 00:41:00,0.0,1.92158,0.00043,384.733,0.110,1.2422,0.0015,139.999,45.000,34323.06196,1.94604,390.722,33.042,45.068,45.000,0.00,0.10,-272.75,-272.80,-7,988,-5,23.3,34.2,6.6,23.1,35.2,6.9,5.73,2.00,2.3,27.2
2015-07-21 00:42:00,0.0,1.92178,0.00051,384.467,0.222,1.2406,0.0018,139.999,45.000,34324.78158,1.94616,390.451,33.061,45.068,45.000,0.00,0.10,-272.73,-272.80,-6,989,-5,23.3,34.2,6.7,23.1,35.2,6.8,5.73,1.86,2.3,27.2
2015-07-21 00:43:00,0.0,1.92247,0.00038,384.310,0.159,1.2463,0.0024,139.999,45.000,34322.56071,1.94703,390.298,33.063,45.068,45.000,0.00,0.10,-272.73,-272.80,-7,988,-5,23.3,34.4,6.7,23.1,35.4,6.9,5.73,1.88,2.3,27.3
2015-07-21 00:44:00,0.0,1.92308,0.00042,384.225,0.163,1.2464,0.0018,140.002,45.000,34322.69834,1.94758,390.234,33.062,45.068,45.000,0.00,0.10,-272.74,-272.80,-6,989,-5,23.3,34.4,6.7,23.1,35.4,7.0,5.73,1.99,2.3,27.3
2015-07-21 00:45:00,0.0,1.92262,0.00040,384.185,0.159,1.2460,0.0034,140.002,45.000,34321.46445,1.94723,390.176,33.027,45.068,45.000,0.00,0.10,-272.73,-272.80,-7,989,-5,23.3,34.4,6.7,23.1,35.4,6.9,5.73,1.78,2.3,27.3
2015-07-21 00:46:00,0.0,1.92244,0.00037,384.409,0.145,1.2457,0.0018,139.999,45.000,34319.03415,1.94697,390.406,33.032,45.068,45.000,0.00,0.10,-272.73,-272.80,-6,989,-5,23.3,34.4,6.7,23.1,35.3,6.9,5.73,2.03,2.3,27.3
2015-07-21 00:47:00,0.0,1.92180,0.00058,384.595,0.114,1.2442,0.0041,140.001,45.000,34321.23482,1.94632,390.588,33.022,45.068,45.000,0.00,0.10,-272.73,-272.80,-7,989,-5,23.3,34.2,6.6,23.1,35.3,6.9,5.73,1.82,2.3,27.3
2015-07-21 00:48:00,0.0,1.92172,0.00041,384.566,0.181,1.2381,0.0018,139.998,45.000,34323.33470,1.94611,390.525,33.035,45.068,45.000,0.00,0.10,-272.74,-272.81,-6,989,-5,23.3,34.1,6.6,23.1,35.1,6.8,5.73,1.94,2.3,27.3
2015-07-21 00:49:00,0.0,1.92180,0.00032,384.616,0.172,1.2393,0.0028,140.001,45.000,34323.86948,1.94619,390.585,33.054,45.068,45.000,0.00,0.10,-272.73,-272.79,-7,989,-5,23.3,34.2,6.6,23.1,35.2,6.9,5.73,1.94,2.3,27.3
2015-07-21 00:50:00,0.0,1.92163,0.00033,384.439,0.125,1.2454,0.0031,139.998,45.000,34323.66837,1.94616,390.439,33.046,45.068,45.000,0.00,0.10,-272.73,-272.80,-6,988,-5,23.3,34.4,6.7,23.1,35.3,6.9,5.73,1.81,2.3,27.3
2015-07-21 00:51:00,0.0,1.92139,0.00042,384.553,0.100,1.2425,0.0020,140.000,45.000,34323.39395,1.94587,390.535,33.049,45.068,45.000,0.00,0.10,-272.74,-272.80,-7,989,-5,23.3,34.2,6.6,23.1,35.3,6.9,5.73,2.03,2.3,27.3
2015-07-21 00:52:00,0.0,1.92132,0.00043,384.593,0.230,1.2420,0.0020,140.001,45.000,34324.63331,1.94574,390.578,33.055,45.068,45.000,0.00,0.10,-272.74,-272.80,-7,989,-5,23.3,34.2,6.6,23.1,35.2,6.9,5.73,1.79,2.3,27.3
2015-07-21 00:53:00,0.0,1.92181,0.00068,384.528,0.148,1.2469,0.0025,139.998,45.000,34322.32660,1.94636,390.537,33.063,45.068,45.000,0.00,0.10,-272.73,-272.79,-7,989,-5,23.3,34.4,6.7,23.1,35.3,6.9,5.73,1.98,2.3,27.3
2015-07-21 00:54:00,0.0,1.92259,0.00034,384.431,0.202,1.2497,0.0017,139.999,45.000,34323.40135,1.94718,390.441,33.063,45.068,45.000,0.00,0.10,-272.75,-272.80,-7,989,-5,23.3,34.5,6.7,23.1,35.5,7.0,5.73,1.89,2.3,27.3
2015-07-21 00:55:00,0.0,1.92348,0.00029,384.346,0.178,1.2467,0.0011,139.999,45.000,34322.51127,1.94804,390.360,33.068,45.068,45.000,0.00,0.10,-272.74,-272.80,-7,989,-5,23.3,34.3,6.7,23.1,35.4,6.9,5.73,1.85,2.3,27.4
2015-07-21 00:56:00,0.0,1.92357,0.00046,384.576,0.131,1.2451,0.0028,140.000,45.000,34324.32647,1.94810,390.565,33.089,45.068,45.000,0.00,0.10,-272.74,-272.79,-7,989,-5,23.3,34.3,6.7,23.1,35.3,6.9,5.73,2.01,2.3,27.4
2015-07-21 00:57:00,0.0,1.92466,0.00069,384.650,0.129,1.2418,0.0023,139.999,45.000,34322.52126,1.94911,390.630,33.114,45.068,45.000,0.00,0.10,-272.73,-272.80,-6,989,-5,23.3,34.2,6.6,23.1,35.2,6.9,5.73,1.78,2.3,27.4
2015-07-21 00:58:00,0.0,1.92494,0.00038,384.325,0.207,1.2419,0.0019,139.997,45.000,34323.05600,1.94943,390.309,33.125,45.068,45.000,0.00,0.10,-272.74,-272.81,-7,989,-5,23.3,34.3,6.6,23.1,35.2,6.9,5.73,2.01,2.3,27.3
2015-07-21 00:59:00,0.0,1.92540,0.00043,384.316,0.196,1.2441,0.0018,139.999,45.000,34324.22351,1.94990,390.296,33.126,45.068,45.000,0.00,0.10,-272.73,-272.80,-6,989,-5,23.3,34.3,6.6,23.1,35.3,6.9,5.73,1.85,2.3,27.3
2015-07-21 01:00:00,0.0,1.92582,0.00033,384.469,0.134,1.2416,0.0027,139.999,45.000,34323.60129,1.95034,390.452,33.125,45.068,45.000,0.00,0.10,-272.73,-272.80,-7,989,-5,23.3,34.2,6.6,23.1,35.2,6.8,5.73,1.88,2.3,27.3
2015-07-21 01:01:00,0.0,1.92609,0.00043,384.431,0.185,1.2432,0.0020,140.003,45.000,34324.43531,1.95060,390.411,33.125,45.068,45.000,0.00,0.10,-272.74,-272.80,-6,989,-5,23.3,34.2,6.6,23.1,35.3,6.9,5.73,1.99,2.3,27.4
2015-07-21 01:02:00,0.0,1.92636,0.00035,384.442,0.174,1.2404,0.0025,140.001,45.000,34323.12469,1.95085,390.432,33.095,45.068,45.000,0.00,0.10,-272.74,-272.80,-8,989,-5,23.3,34.2,6.6,23.1,35.2,6.9,5.73,1.78,2.3,27.3
2015-07-21 01:03:00,0.0,1.92616,0.00039,384.320,0.257,1.2454,0.0019,140.000,45.000,34322.87821,1.95074,390.307,33.068,45.068,45.000,0.00,0.10,-272.74,-272.80,-6,989,-5,23.3,34.4,6.7,23.1,35.4,6.9,5.73,2.02,2.3,27.4
2015-07-21 01:04:00,0.0,1.92608,0.00029,384.211,0.098,1.2439,0.0025,140.000,45.000,34323.96822,1.95062,390.201,33.063,45.068,45.000,0.00,0.10,-272.74,-272.80,-7,989,-5,23.3,34.3,6.7,23.1,35.3,6.9,5.73,1.84,2.3,27.4
2015-07-21 01:05:00,0.0,1.92545,0.00078,384.166,0.301,1.2470,0.0021,139.999,45.000,34324.72171,1.95008,390.165,33.094,45.068,45.001,0.00,0.10,-272.74,-272.80,-6,989,-5,23.3,34.5,6.7,23.1,35.4,6.9,5.73,1.89,2.3,27.4
2015-07-21 01:06:00,0.0,1.92600,0.00038,384.432,0.130,1.2478,0.0019,140.002,45.000,34325.21713,1.95061,390.434,33.121,45.068,45.000,0.00,0.10,-272.73,-272.79,-7,989,-5,23.3,34.4,6.7,23.1,35.4,7.0,5.73,1.98,2.3,27.4
2015-07-21 01:07:00,0.0,1.92545,0.00038,384.377,0.173,1.2466,0.0023,139.999,45.000,34323.01942,1.95009,390.385,33.140,45.068,45.000,0.00,0.10,-272.73,-272.80,-7,989,-5,23.3,34.4,6.7,23.1,35.4,6.9,5.73,1.78,2.3,27.4
2015-07-21 01:08:00,0.0,1.92462,0.00039,384.508,0.123,1.2497,0.0019,140.001,45.000,34323.36564,1.94930,390.518,33.189,45.068,45.000,0.00,0.10,-272.74,-272.80,-7,989,-5,23.3,34.4,6.7,23.1,35.4,6.9,5.73,2.03,2.3,27.3
2015-07-21 01:09:00,0.0,1.92424,0.00029,384.413,0.118,1.2469,0.0021,140.002,45.000,34325.71248,1.94886,390.423,33.189,45.068,45.000,0.00,0.10,-272.74,-272.80,-7,989,-5,23.4,34.4,6.8,23.1,35.3,6.9,5.73,1.83,2.3,27.4
2015-07-21 01:10:00,0.0,1.92424,0.00045,384.391,0.178,1.2492,0.0019,139.998,45.000,34324.36466,1.94886,390.403,33.189,45.067,44.999,0.00,0.10,-272.73,-272.79,-7,989,-5,23.3,34.4,6.7,23.1,35.4,7.0,5.73,1.92,2.3,27.4
2015-07-21 01:11:00,0.0,1.92426,0.00028,384.264,0.153,1.2466,0.0019,140.002,45.000,34325.50908,1.94883,390.263,33.186,45.067,45.000,0.00,0.10,-272.74,-272.80,-7,989,-5,23.4,34.4,6.7,23.1,35.4,6.9,5.73,1.97,2.3,27.3
2015-07-21 01:12:00,0.0,1.92426,0.00040,384.434,0.157,1.2455,0.0043,140.001,45.000,34324.96547,1.94883,390.437,33.185,45.068,45.000,0.00,0.10,-272.73,-272.81,-6,990,-5,23.3,34.2,6.6,23.1,35.3,7.0,5.73,1.79,2.3,27.3
2015-07-21 01:13:00,0.0,1.92363,0.00043,384.346,0.228,1.2401,0.0012,140.001,45.000,34326.32454,1.94807,390.326,33.181,45.068,45.000,0.00,0.10,-272.73,-272.80,-7,989,-5,23.3,34.1,6.6,23.1,35.1,6.9,5.73,2.02,2.3,27.4
2015-07-21 01:14:00,0.0,1.92358,0.00044,384.224,0.171,1.2429,0.0022,140.000,45.000,34326.83581,1.94808,390.195,33.170,45.068,45.000,0.00,0.10,-272.73,-272.80,-6,989,-5,23.3,34.2,6.6,23.1,35.2,6.9,5.73,1.83,2.3,27.4
2015-07-21 01:15:00,0.0,1.92364,0.00042,384.083,0.217,1.2407,0.0024,140.000,45.000,34326.23519,1.94809,390.063,33.169,45.068,45.000,0.00,0.10,-272.73,-272.80,-7,989,-5,23.3,34.3,6.7,23.1,35.2,6.9,5.73,1.90,2.3,27.4
2015-07-21 01:16:00,0.0,1.92372,0.00032,383.996,0.246,1.2486,0.0022,139.999,45.000,34325.70414,1.94836,389.991,33.160,45.068,45.000,0.00,0.10,-272.74,-272.79,-6,989,-5,23.3,34.4,6.7,23.1,35.4,7.0,5.73,1.98,2.3,27.4
2015-07-21 01:17:00,0.0,1.92263,0.00059,384.438,0.133,1.2420,0.0029,139.999,45.000,34324.63631,1.94714,390.412,33.148,45.068,45.000,0.00,0.10,-272.73,-272.80,-7,990,-5,23.3,34.1,6.6,23.1,35.2,6.9,5.73,1.78,2.3,27.4
2015-07-21 01:18:00,0.0,1.92203,0.00029,384.571,0.106,1.2400,0.0028,140.000,45.000,34326.98787,1.94646,390.544,33.174,45.068,45.000,0.00,0.10,-272.74,-272.80,-7,989,-5,23.4,34.1,6.6,23.1,35.1,6.9,5.73,2.02,2.3,27.4
2015-07-21 01:19:00,0.0,1.92224,0.00040,384.032,0.250,1.2425,0.0056,140.001,45.000,34327.79220,1.94671,390.017,33.188,45.068,45.000,0.00,0.10,-272.74,-272.80,-7,990,-5,23.4,34.4,6.8,23.1,35.2,6.9,5.73,1.84,2.3,27.4
2015-07-21 01:20:00,0.0,1.92258,0.00038,384.087,0.150,1.2524,0.0022,139.999,45.000,34326.96725,1.94721,390.113,33.188,45.068,45.000,0.00,0.10,-272.73,-272.80,-7,989,-5,23.3,34.5,6.8,23.1,35.5,7.0,5.73,1.90,2.4,27.4
2015-07-21 01:21:00,0.0,1.92164,0.00050,384.278,0.274,1.2542,0.0016,139.999,45.000,34325.47534,1.94643,390.310,33.186,45.068,45.000,0.00,0.10,-272.74,-272.80,-7,990,-5,23.3,34.5,6.8,23.1,35.5,7.0,5.73,1.98,2.3,27.3
2015-07-21 01:22:00,0.0,1.92155,0.00040,383.999,0.286,1.2589,0.0050,140.001,45.000,34326.48657,1.94630,390.052,33.167,45.068,45.000,0.00,0.10,-272.74,-272.80,-7,989,-5,23.3,34.7,6.9,23.2,35.6,7.1,5.73,1.78,2.3,27.4
2015-07-21 01:23:00,0.0,1.92164,0.00040,384.330,0.155,1.2551,0.0035,139.999,45.000,34327.02036,1.94642,390.375,33.163,45.068,45.000,0.00,0.10,-272.73,-272.79,-6,990,-5,23.3,34.5,6.8,23.1,35.6,7.0,5.73,2.02,2.3,27.4
2015-07-21 01:24:00,0.0,1.92127,0.00028,384.420,0.235,1.2567,0.0033,140.001,45.000,34326.17068,1.94601,390.474,33.185,45.068,45.000,0.00,0.10,-272.74,-272.79,-7,989,-5,23.4,34.5,6.8,23.1,35.6,7.1,5.73,1.84,2.4,27.4
2015-07-21 01:25:00,0.0,1.92088,0.00043,384.320,0.135,1.2556,0.0037,139.999,45.000,34325.89970,1.94562,390.367,33.184,45.068,45.000,0.00,0.10,-272.74,-272.80,-6,990,-5,23.3,34.7,6.9,23.1,35.5,7.0,5.73,1.89,2.4,27.3
2015-07-21 01:26:00,0.0,1.92006,0.00038,384.266,0.213,1.2586,0.0028,139.999,45.000,34327.83590,1.94486,390.333,33.188,45.068,45.000,0.00,0.10,-272.74,-272.80,-8,990,-5,23.3,34.6,6.8,23.1,35.6,7.1,5.73,1.99,2.4,27.4
2015-07-21 01:27:00,0.0,1.91977,0.00035,383.924,0.255,1.2650,0.0029,140.000,45.000,34328.65519,1.94467,390.017,33.212,45.068,45.000,0.00,0.10,-272.73,-272.80,-6,990,-5,23.4,34.9,7.0,23.1,35.8,7.1,5.73,1.78,2.4,27.4
2015-07-21 01:28:00,0.0,1.91967,0.00033,384.199,0.352,1.2639,0.0064,140.001,45.000,34330.38695,1.94457,390.269,33.228,45.068,45.000,0.00,0.10,-272.74,-272.80,-7,990,-5,23.4,34.6,6.8,23.1,35.8,7.1,5.73,2.02,2.4,27.4
2015-07-21 01:29:00,0.0,1.91976,0.00032,384.498,0.129,1.2494,0.0025,140.001,45.000,34331.64940,1.94435,390.516,33.248,45.068,45.000,0.00,0.10,-272.73,-272.80,-7,990,-5,23.4,34.3,6.7,23.1,35.3,6.9,5.73,1.85,2.4,27.3
2015-07-21 01:30:00,0.0,1.92018,0.00022,384.424,0.147,1.2528,0.0028,139.998,45.000,34330.74277,1.94480,390.468,33.251,45.068,45.000,0.00,0.10,-272.73,-272.80,-7,990,-5,23.4,34.4,6.8,23.1,35.4,7.0,5.73,1.88,2.4,27.4
2015-07-21 01:31:00,0.0,1.92065,0.00039,384.344,0.191,1.2538,0.0029,140.001,45.000,34331.23819,1.94533,390.380,33.254,45.068,45.000,0.00,0.10,-272.73,-272.80,-7,990,-5,23.4,34.5,6.8,23.1,35.4,7.0,5.73,1.99,2.4,27.4
2015-07-21 01:32:00,0.0,1.92077,0.00051,384.398,0.199,1.2521,0.0029,140.003,45.000,34335.06585,1.94538,390.430,33.250,45.068,45.000,0.00,0.10,-272.74,-272.80,-7,990,-5,23.4,34.3,6.7,23.1,35.4,7.0,5.73,1.78,2.4,27.4
2015-07-21 01:33:00,0.0,1.92073,0.00050,384.458,0.227,1.2439,0.0026,140.002,45.000,34332.64026,1.94528,390.441,33.250,45.068,45.000,0.00,0.10,-272.74,-272.80,-7,990,-5,23.4,34.0,6.6,23.1,35.1,6.9,5.73,2.01,2.4,27.4
2015-07-21 01:34:00,0.0,1.92158,0.00048,384.237,0.203,1.2350,0.0027,140.002,45.000,34332.15523,1.94583,390.188,33.256,45.068,45.000,0.00,0.10,-272.73,-272.79,-7,990,-5,23.4,33.9,6.6,23.1,34.9,6.8,5.73,1.85,2.4,27.4
2015-07-21 01:35:00,0.0,1.92224,0.00044,384.567,0.185,1.2338,0.0035,139.998,45.000,34330.68262,1.94650,390.500,33.272,45.068,45.000,0.00,0.10,-272.74,-272.80,-7,990,-5,23.3,33.8,6.5,23.1,34.8,6.7,5.73,1.86,2.4,27.4
2015-07-21 01:36:00,0.0,1.92257,0.00048,384.705,0.120,1.2299,0.0025,139.999,45.000,34329.21582,1.94678,390.627,33.285,45.068,45.000,0.00,0.10,-272.74,-272.80,-6,990,-5,23.4,33.7,6.5,23.1,34.7,6.6,5.73,2.00,2.4,27.4
2015-07-21 01:37:00,0.0,1.92260,0.00039,384.277,0.188,1.2344,0.0046,140.001,45.000,34329.53157,1.94690,390.225,33.294,45.068,45.000,0.00,0.10,-272.73,-272.79,-8,990,-5,23.4,33.9,6.6,23.1,34.9,6.8,5.73,1.78,2.4,27.5
2015-07-21 01:38:00,0.0,1.92288,0.00033,384.350,0.180,1.2365,0.0015,140.000,45.000,34330.49500,1.94723,390.297,33.281,45.068,45.000,0.00,0.10,-272.74,-272.80,-6,990,-5,23.4,33.9,6.6,23.1,34.9,6.8,5.73,1.99,2.4,27.4
2015-07-21 01:39:00,0.0,1.92287,0.00045,384.593,0.190,1.2335,0.0022,140.001,45.000,34332.64273,1.94720,390.519,33.279,45.068,45.000,0.00,0.10,-272.74,-272.80,-7,990,-5,23.4,33.8,6.5,23.1,34.8,6.7,5.73,1.89,2.4,27.4
2015-07-21 01:40:00,0.0,1.92280,0.00039,384.668,0.198,1.2283,0.0020,139.999,45.000,34332.71458,1.94698,390.594,33.257,45.068,45.000,0.00,0.10,-272.73,-272.79,-7,990,-5,23.4,33.7,6.5,23.1,34.7,6.7,5.73,1.84,2.4,27.4
2015-07-21 01:41:00,0.0,1.92237,0.00046,384.343,0.142,1.2324,0.0031,140.000,45.000,34332.46938,1.94667,390.279,33.251,45.068,45.000,0.00,0.10,-272.74,-272.80,-7,991,-5,23.4,33.8,6.6,23.1,34.8,6.7,5.73,2.02,2.4,27.4
2015-07-21 01:42:00,0.0,1.92218,0.00041,384.235,0.234,1.2375,0.0030,139.999,45.000,34334.12850,1.94654,390.180,33.250,45.068,45.000,0.00,0.10,-272.74,-272.80,-7,990,-5,23.4,33.9,6.6,23.1,34.9,6.8,5.73,1.78,2.4,27.4
2015-07-21 01:43:00,0.0,1.92207,0.00044,384.442,0.252,1.2328,0.0039,139.999,45.000,34336.84901,1.94635,390.376,33.251,45.068,45.000,0.00,0.10,-272.74,-272.80,-7,990,-5,23.4,33.7,6.5,23.2,34.8,6.8,5.73,1.97,2.4,27.4
2015-07-21 01:44:00,0.0,1.92163,0.00046,384.593,0.098,1.2288,0.0019,139.998,45.000,34337.44305,1.94584,390.502,33.266,45.068,45.000,0.00,0.10,-272.73,-272.80,-7,990,-5,23.4,33.7,6.5,23.1,34.7,6.7,5.73,1.91,2.4,27.4
2015-07-21 01:45:00,0.0,1.92189,0.00037,384.665,0.109,1.2329,0.0032,139.999,45.000,34335.10419,1.94611,390.609,33.262,45.068,45.000,0.00,0.10,-272.74,-272.80,-6,990,-5,23.4,33.8,6.6,23.1,34.8,6.7,5.73,1.82,2.4,27.3
2015-07-21 01:46:00,0.0,1.92183,0.00063,384.379,0.170,1.2382,0.0022,140.000,45.000,34335.45593,1.94623,390.343,33.252,45.068,45.000,0.00,0.10,-272.74,-272.80,-8,990,-5,23.4,34.0,6.6,23.1,34.9,6.8,5.73,2.03,2.4,27.4
2015-07-21 01:47:00,0.0,1.92113,0.00067,384.446,0.196,1.2378,0.0019,140.001,45.000,34336.11263,1.94556,390.398,33.259,45.068,45.000,0.00,0.10,-272.74,-272.79,-6,990,-5,23.4,33.9,6.6,23.1,34.9,6.8,5.73,1.80,2.4,27.4
2015-07-21 01:48:00,0.0,1.92116,0.00046,384.394,0.155,1.2330,0.0026,139.998,45.000,34335.35670,1.94536,390.333,33.288,45.068,45.000,0.00,0.10,-272.74,-272.80,-7,990,-5,23.4,33.7,6.5,23.2,34.8,6.8,5.73,1.94,2.4,27.5